This demonstration page uses our WeatherBlox Daily Observations layout. Learn more.

Left ArrowRight Arrow

Hourly Observations for August 24, 2021

Temp ( °F °C ) Dew Point ( °F °C ) Humidity (%) Winds ( mph kmh ) Pressure ( in mb ) Visibility ( mi km ) Precip ( " mm )
12:59 am 00:59 Mostly Clear 80 26.7 72 22.2 76 76 SW 5 7 29.96 1015 8 13 0.00 0.00
1:59 am 01:59 Mostly Clear 79 26.1 72 22.2 79 79 SW 3 6 29.95 1014 8 13 0.00 0.00
2:59 am 02:59 Mostly Clear 78 25.6 72 22.2 82 82 SSW 8 13 29.95 1014 8 13 0.00 0.00
3:59 am 03:59 Partly Cloudy 78 25.6 72 22.2 82 82 SW 5 7 29.95 1014 8 13 0.00 0.00
4:59 am 04:59 Partly Cloudy 78 25.6 71 21.7 79 79 WSW 6 9 29.95 1014 8 13 0.00 0.00
5:59 am 05:59 Mostly Cloudy 78 25.6 72 22.2 82 82 SW 3 6 29.97 1015 8 13 0.00 0.00
6:59 am 06:59 Partly Cloudy 77 25 72 22.2 85 85 SW 5 7 29.98 1015 8 13 0.00 0.00
7:59 am 07:59 Mostly Sunny 80 26.7 73 22.8 79 79 SW 3 6 30.00 1016 9 14 0.00 0.00
8:59 am 08:59 Mostly Sunny 82 27.8 73 22.8 74 74 W 7 11 30.01 1016 10 16 0.00 0.00
9:59 am 09:59 Partly Cloudy 86 30 72 22.2 63 63 NNW 6 9 30.02 1017 10 16 0.00 0.00
10:59 am 10:59 Mostly Sunny 88 31.1 72 22.2 59 59 VRB 3 6 30.04 1017 8 13 0.00 0.00
11:59 am 11:59 Mostly Sunny 89 31.7 73 22.8 59 59 VRB 5 7 30.03 1017 10 16 0.00 0.00
12:59 pm 12:59 Mostly Sunny 90 32.2 70 21.1 52 52 ENE 8 13 30.04 1017 9 14 0.00 0.00
1:59 pm 13:59 Sunny 90 32.2 73 22.8 58 58 VRB 7 11 30.02 1017 8 13 0.00 0.00
2:59 pm 14:59 Sunny 91 32.8 73 22.8 56 56 NNE 5 7 30.01 1016 8 13 0.00 0.00
3:59 pm 15:59 Partly Cloudy 91 32.8 73 22.8 56 56 NNE 5 7 30.00 1016 8 13 0.00 0.00
4:59 pm 16:59 Partly Cloudy 91 32.8 72 22.2 54 54 VRB 7 11 30.00 1016 7 11 0.00 0.00
5:59 pm 17:59 Partly Cloudy 89 31.7 73 22.8 59 59 E 7 11 30.00 1016 7 11 0.00 0.00
6:59 pm 18:59 Partly Cloudy 87 30.6 74 23.3 65 65 ENE 8 13 30.00 1016 7 11 0.00 0.00
7:59 pm 19:59 Partly Cloudy 85 29.4 73 22.8 68 68 E 6 9 30.01 1016 7 11 0.00 0.00
8:59 pm 20:59 Partly Cloudy 83 28.3 74 23.3 74 74 ESE 5 7 30.04 1017 7 11 0.00 0.00
9:59 pm 21:59 Partly Cloudy 81 27.2 74 23.3 79 79 SE 3 6 30.04 1017 7 11 0.00 0.00
10:59 pm 22:59 Partly Cloudy 82 27.8 74 23.3 77 77 S 5 7 30.05 1018 8 13 0.00 0.00
11:59 pm 23:59 Mostly Clear 81 27.2 74 23.3 79 79 S 5 7 30.07 1018 8 13 0.00 0.00

Powered by AerisWeather